Date String (YYYY-MM-DD hh:mm:ss) UTC,Instrument flags,Ambient pressure (hPa),Sample flow (lpm),Bypass flow (lpm),Sample temperature (°C),Ambient temperature (°C),ASC tube jacket temperature (°C),LED temperature (°C),Box temperature (°C),Sample RH (%),Span deviation,Mass concentration (μg/m³),Mass concentration (μg/m³),Mass concentration (μg/m³)
DateTimeUTC,F1_M11,P_M11,Q1_M11,Q2_M11,T1_M11,T2_M11,T3_M11,T4_M11,T5_M11,U1_M11,ZSPAN_M11,X0_M11,X2_M11,X1_M11
2021-10-08 05:00:00,,0826.9,5.00,0.00,29.9,28.9,00.0,38.9,31.7,15.1,0000.0,0008.96,0003.82,0003.33
2021-10-08 05:01:00,,0826.9,4.99,0.00,29.9,29.0,00.0,38.9,31.7,15.1,0000.0,0008.13,0003.81,0003.32
2021-10-08 05:02:00,,0826.9,5.02,0.00,30.0,29.0,00.0,38.9,31.8,15.0,0000.0,0008.48,0003.81,0003.31
2021-10-08 05:03:00,,0826.9,4.99,0.00,30.0,29.0,00.0,39.0,31.8,15.0,0000.0,0008.56,0003.81,0003.32
2021-10-08 05:04:00,,0826.8,5.01,0.00,30.0,29.1,00.0,39.0,31.8,15.0,0000.0,0008.43,0003.78,0003.32
2021-10-08 05:05:00,,0826.8,5.01,0.00,30.0,29.1,00.0,39.0,31.8,15.0,0000.0,0008.38,0003.76,0003.32
2021-10-08 05:06:00,,0826.9,4.99,0.00,30.1,29.1,00.0,39.0,31.9,14.9,0000.0,0008.34,0003.75,0003.32
2021-10-08 05:07:00,,0826.9,5.01,0.00,30.1,29.1,00.0,39.0,31.9,14.9,0000.0,0007.86,0003.79,0003.33
2021-10-08 05:08:00,,0826.9,4.99,0.00,30.1,29.1,00.0,39.1,31.9,14.9,0000.0,0008.08,0003.83,0003.33
2021-10-08 05:09:00,,0826.9,5.00,0.00,30.1,29.2,00.0,39.1,31.9,14.8,0000.0,0007.71,0003.82,0003.33
2021-10-08 05:10:00,,0826.8,5.00,0.00,30.1,29.2,00.0,39.1,31.9,14.7,0000.0,0008.01,0003.82,0003.33
2021-10-08 05:11:00,,0827.1,4.99,0.00,30.2,29.2,00.0,39.1,32.0,14.6,0000.0,0008.03,0003.82,0003.32
2021-10-08 05:12:00,,0826.9,5.01,0.00,30.2,28.4,00.0,39.1,31.7,14.7,0000.0,0008.06,0003.78,0003.32
2021-10-08 05:13:00,,0827.1,4.99,0.00,30.0,26.5,00.0,39.1,31.2,14.8,0000.0,0008.40,0003.81,0003.32
2021-10-08 05:14:00,,0827.2,5.01,0.00,29.8,26.3,00.0,39.1,31.1,15.0,0000.0,0008.51,0003.81,0003.32
2021-10-08 05:15:00,,0827.3,5.00,0.00,29.7,26.6,00.0,39.0,31.2,15.0,0000.0,0008.66,0003.84,0003.32
2021-10-08 05:16:00,,0826.9,5.00,0.00,29.7,27.0,00.0,39.0,31.2,15.1,0000.0,0009.93,0003.86,0003.31
2021-10-08 05:17:00,,0827.0,4.99,0.00,29.7,27.4,00.0,38.9,31.2,15.1,0000.0,0010.15,0003.88,0003.31
2021-10-08 05:18:00,,0827.0,5.00,0.00,29.7,27.7,00.0,38.9,31.3,15.0,0000.0,0010.13,0003.83,0003.30
2021-10-08 05:19:00,,0826.9,5.01,0.00,29.7,27.9,00.0,38.9,31.4,15.0,0000.0,0010.07,0003.81,0003.30
2021-10-08 05:20:00,,0827.2,5.00,0.00,29.7,28.1,00.0,38.9,31.4,15.0,0000.0,0010.55,0003.79,0003.29
2021-10-08 05:21:00,,0827.2,5.00,0.00,29.7,28.3,00.0,38.9,31.4,15.0,0000.0,0010.10,0003.75,0003.28
2021-10-08 05:22:00,,0826.8,4.99,0.00,29.7,28.4,00.0,38.9,31.5,15.0,0000.0,0010.00,0003.73,0003.27
2021-10-08 05:23:00,,0827.1,5.00,0.00,29.8,28.5,00.0,38.9,31.5,15.0,0000.0,0010.79,0003.72,0003.27
2021-10-08 05:24:00,,0827.2,5.00,0.00,29.8,28.6,00.0,38.9,31.5,15.0,0000.0,0010.09,0003.69,0003.27
2021-10-08 05:25:00,,0827.1,5.01,0.00,29.8,28.7,00.0,38.9,31.6,14.9,0000.0,0009.86,0003.66,0003.26
2021-10-08 05:26:00,,0827.2,5.00,0.00,29.8,28.7,00.0,38.9,31.6,14.9,0000.0,0009.74,0003.63,0003.26
2021-10-08 05:27:00,,0826.9,5.00,0.00,29.8,28.8,00.0,38.9,31.6,15.0,0000.0,0008.52,0003.62,0003.26
2021-10-08 05:28:00,,0826.9,4.98,0.00,29.9,28.8,00.0,38.9,31.7,14.9,0000.0,0008.45,0003.61,0003.24
2021-10-08 05:29:00,,0826.9,5.01,0.00,29.9,28.9,00.0,38.9,31.7,14.8,0000.0,0008.49,0003.62,0003.25
2021-10-08 05:30:00,,0826.9,5.01,0.00,29.9,28.9,00.0,38.9,31.7,14.8,0000.0,0008.54,0003.60,0003.24
2021-10-08 05:31:00,,0826.9,5.01,0.00,29.9,28.9,00.0,38.9,31.7,14.7,0000.0,0007.88,0003.59,0003.23
2021-10-08 05:32:00,,0827.0,4.99,0.00,30.0,29.0,00.0,39.0,31.7,14.8,0000.0,0007.83,0003.58,0003.23
2021-10-08 05:33:00,,0826.9,5.01,0.00,30.0,29.0,00.0,39.0,31.8,14.7,0000.0,0007.74,0003.56,0003.23
2021-10-08 05:34:00,,0827.1,5.01,0.00,30.0,29.0,00.0,39.0,31.8,14.9,0000.0,0006.60,0003.56,0003.24
2021-10-08 05:35:00,,0827.0,5.00,0.00,30.0,29.0,00.0,39.0,31.8,14.7,0000.0,0006.56,0003.56,0003.25
2021-10-08 05:36:00,,0826.9,4.99,0.00,30.0,29.1,00.0,39.0,31.8,14.7,0000.0,0006.56,0003.56,0003.25
2021-10-08 05:37:00,,0826.9,5.00,0.00,30.1,29.1,00.0,39.0,31.9,14.6,0000.0,0006.96,0003.57,0003.24
2021-10-08 05:38:00,,0826.9,5.00,0.00,30.1,29.1,00.0,39.1,31.9,14.6,0000.0,0008.14,0003.56,0003.23
2021-10-08 05:39:00,,0826.9,5.01,0.00,30.1,29.1,00.0,39.1,31.9,14.5,0000.0,0008.28,0003.56,0003.24
2021-10-08 05:40:00,,0827.0,4.99,0.00,30.1,29.1,00.0,39.1,31.9,14.6,0000.0,0008.89,0003.57,0003.24
2021-10-08 05:41:00,,0826.9,5.01,0.00,30.1,29.1,00.0,39.1,31.9,14.6,0000.0,0008.83,0003.57,0003.24
2021-10-08 05:42:00,,0826.9,5.00,0.00,30.2,29.1,00.0,39.1,31.9,14.6,0000.0,0008.69,0003.55,0003.25
2021-10-08 05:43:00,,0826.9,4.99,0.00,30.2,29.1,00.0,39.2,31.9,14.6,0000.0,0008.60,0003.55,0003.26
2021-10-08 05:44:00,,0827.1,5.00,0.00,30.2,29.1,00.0,39.2,31.9,14.6,0000.0,0008.69,0003.58,0003.26
2021-10-08 05:45:00,,0827.0,5.00,0.00,30.2,29.2,00.0,39.2,32.0,14.5,0000.0,0008.89,0003.60,0003.26
2021-10-08 05:46:00,,0827.3,5.01,0.00,30.2,29.1,00.0,39.2,32.0,14.5,0000.0,0009.56,0003.60,0003.25
2021-10-08 05:47:00,,0826.9,4.99,0.00,30.1,27.5,00.0,39.2,31.5,14.5,0000.0,0009.88,0003.61,0003.25
2021-10-08 05:48:00,,0826.8,5.00,0.00,29.9,26.1,00.0,39.1,31.1,14.6,0000.0,0009.61,0003.61,0003.25
2021-10-08 05:49:00,,0826.8,5.00,0.00,29.8,26.2,00.0,39.1,31.2,14.7,0000.0,0008.91,0003.62,0003.25
2021-10-08 05:50:00,,0826.9,5.00,0.00,29.8,26.6,00.0,39.1,31.2,14.7,0000.0,0010.43,0003.63,0003.24
2021-10-08 05:51:00,,0826.8,5.00,0.00,29.7,27.1,00.0,39.0,31.3,14.8,0000.0,0009.97,0003.61,0003.23
2021-10-08 05:52:00,,0826.8,4.98,0.00,29.7,27.4,00.0,39.0,31.3,14.9,0000.0,0009.92,0003.59,0003.22
2021-10-08 05:53:00,,0826.9,5.01,0.00,29.7,27.7,00.0,38.9,31.4,14.8,0000.0,0009.99,0003.59,0003.20
2021-10-08 05:54:00,,0826.9,5.00,0.00,29.7,27.9,00.0,38.9,31.4,14.8,0000.0,0010.01,0003.58,0003.19
2021-10-08 05:55:00,,0827.1,4.99,0.00,29.7,28.1,00.0,38.9,31.4,14.8,0000.0,0009.95,0003.55,0003.17
2021-10-08 05:56:00,,0827.1,5.00,0.00,29.7,28.3,00.0,38.9,31.5,14.8,0000.0,0010.55,0003.52,0003.15
2021-10-08 05:57:00,,0827.1,4.99,0.00,29.8,28.4,00.0,38.9,31.5,14.8,0000.0,0010.06,0003.51,0003.15
2021-10-08 05:58:00,,0827.0,5.02,0.00,29.8,28.5,00.0,38.9,31.5,14.8,0000.0,0009.57,0003.50,0003.14
2021-10-08 05:59:00,,0826.9,5.00,0.00,29.8,28.6,00.0,38.9,31.5,14.9,0000.0,0009.52,0003.49,0003.14
